Location: Bremen
(53.0796°N, 8.8241°E)
Time: 22:31:39
(UTC+02:00)

ISS - Visible Passes

Search period start: 25 September 2020 00:00
Search period end: 05 October 2020 00:00
Orbit: 419 x 420 km, 51.6° (Epoch: 26 September)

Date Brightness Start Highest point End Pass type
(mag) Time Alt. Az. Time Alt. Az. Time Alt. Az.
25 Sep -3.8 20:57:56 10° W 21:01:17 70° S 21:02:08 46° ESE visible
25 Sep -0.7 22:34:41 10° W 22:35:06 13° W 22:35:06 13° W visible
26 Sep -3.7 20:10:34 10° WSW 20:13:56 67° S 20:16:31 16° E visible
26 Sep -2.3 21:47:18 10° W 21:49:28 34° WSW 21:49:28 34° WSW visible
27 Sep -3.7 20:59:55 10° W 21:03:16 64° S 21:03:50 52° SE visible
28 Sep -3.7 20:12:31 10° W 20:15:53 69° S 20:18:11 19° ESE visible
28 Sep -1.8 21:49:20 10° W 21:51:09 25° WSW 21:51:09 25° WSW visible
29 Sep -3.2 21:01:53 10° W 21:05:08 45° SSW 21:05:30 43° S visible
30 Sep -3.3 20:14:27 10° W 20:17:46 55° SSW 20:19:53 20° ESE visible
30 Sep -1.2 21:51:35 10° W 21:52:51 16° WSW 21:52:51 16° WSW visible
01 Oct -2.3 21:03:57 10° W 21:06:52 27° SSW 21:07:15 26° SSW visible
02 Oct -2.6 20:16:25 10° W 20:19:32 35° SSW 20:21:42 17° SE visible
03 Oct -2.9 19:28:54 10° W 19:32:09 45° SSW 19:35:24 10° SE visible
03 Oct -1.3 21:06:26 10° WSW 21:08:23 15° SW 21:09:10 14° SSW visible
04 Oct -1.5 20:18:33 10° W 20:21:07 20° SSW 20:23:40 10° SSE visible
